Temp
-5 -6 -6 -6 -6 -6 -6 -6 -6 -6 -6 -6 -6 -6 -6 -7 -7 -7 -7 -7 -7 -7 -7 -8 -8 -8 -8 -8 -8 -8 -8 -8 -8 -8 -8 -8 -8 -8 -8 -8 -8 -8
-5 -5 -6 -6 -6 -6 -6 -6 -6 -6 -6 -6 -6 -6 -6 -6 -6 -7 -7 -7 -7 -7 -7 -8 -8 -8 -8 -8 -8 -8 -8 -8 -8 -8 -8 -8 -8 -8 -8 -8 -8 -8
-5 -5 -5 -6 -6 -6 -6 -6 -6 -6 -6 -6 -6 -6 -6 -6 -6 -7 -7 -7 -7 -7 -7 -8 -8 -8 -8 -8 -8 -8 -8 -8 -8 -8 -8 -8 -8 -8 -8 -8 -8 -8
-5 -5 -5 -6 -6 -6 -6 -6 -6 -6 -6 -6 -6 -6 -6 -6 -6 -7 -7 -7 -7 -7 -7 -7 -8 -8 -8 -8 -8 -8 -8 -8 -8 -8 -8 -8 -8 -8 -8 -8 -8 -8
-5 -5 -5 -6 -6 -6 -6 -6 -6 -6 -6 -6 -6 -6 -6 -6 -6 -7 -7 -7 -7 -7 -7 -7 -7 -8 -7 -7 -7 -7 -7 -7 -7 -7 -7 -7 -7 -8 -8 -8 -8 -8
-5 -5 -6 -6 -6 -6 -6 -6 -6 -6 -6 -6 -6 -6 -6 -6 -6 -6 -6 -7 -7 -7 -7 -7 -7 -7 -7 -7 -7 -7 -7 -7 -7 -7 -7 -7 -7 -7 -7 -7 -7 -8
-5 -5 -6 -6 -6 -6 -6 -6 -6 -6 -6 -6 -6 -6 -6 -6 -6 -6 -6 -6 -7 -7 -7 -7 -7 -7 -7 -7 -7 -7 -7 -7 -7 -7 -7 -7 -7 -7 -7 -7 -7 -7
-5 -5 -6 -6 -6 -6 -6 -6 -6 -6 -6 -6 -6 -6 -6 -6 -6 -6 -6 -6 -7 -7 -7 -7 -7 -7 -7 -7 -7 -7 -7 -7 -7 -7 -7 -7 -7 -7 -7 -7 -7 -7
-5 -6 -6 -6 -6 -6 -6 -6 -6 -6 -6 -6 -6 -6 -6 -6 -6 -6 -6 -6 -7 -7 -7 -7 -7 -7 -7 -7 -7 -7 -7 -7 -7 -7 -7 -7 -7 -7 -7 -7 -7 -7
-6 -6 -6 -6 -6 -6 -6 -6 -6 -6 -6 -6 -6 -6 -6 -6 -6 -6 -6 -7 -7 -7 -7 -7 -7 -7 -7 -7 -7 -7 -7 -7 -7 -7 -7 -7 -7 -7 -7 -7 -7 -7
-6 -6 -6 -6 -6 -6 -6 -6 -6 -6 -6 -6 -6 -6 -6 -6 -6 -7 -7 -7 -7 -7 -7 -7 -7 -7 -7 -7 -6 -6 -6 -6 -7 -7 -7 -7 -7 -7 -7 -7 -7 -7
-6 -6 -6 -6 -6 -6 -6 -6 -6 -6 -6 -6 -6 -6 -6 -6 -6 -7 -7 -7 -7 -7 -7 -7 -7 -7 -7 -6 -6 -6 -6 -6 -6 -6 -7 -7 -7 -7 -7 -7 -7 -7
-6 -6 -6 -6 -6 -6 -6 -6 -6 -6 -6 -6 -6 -6 -6 -6 -6 -6 -7 -7 -7 -7 -7 -7 -7 -7 -6 -6 -6 -6 -6 -6 -6 -6 -6 -6 -7 -7 -7 -7 -7 -7
-6 -6 -6 -6 -6 -6 -6 -6 -6 -6 -6 -6 -6 -6 -6 -6 -6 -6 -6 -6 -6 -7 -7 -7 -7 -7 -6 -6 -6 -6 -6 -6 -6 -6 -6 -6 -6 -6 -7 -7 -7 -7
-6 -6 -6 -6 -6 -6 -6 -6 -6 -6 -6 -6 -6 -6 -6 -6 -6 -6 -6 -6 -6 -6 -6 -6 -6 -6 -6 -6 -6 -6 -6 -6 -6 -6 -6 -6 -6 -6 -6 -6 -6 -7
-5 -6 -6 -6 -5 -5 -5 -6 -6 -6 -6 -6 -6 -6 -6 -6 -6 -6 -6 -6 -6 -6 -6 -6 -6 -6 -6 -6 -7 -7 -7 -7 -6 -6 -6 -6 -6 -6 -6 -6 -6 -6
-5 -5 -6 -6 -6 -5 -5 -6 -6 -6 -6 -6 -6 -6 -6 -6 -6 -6 -6 -6 -6 -6 -6 -6 -6 -6 -6 -7 -7 -7 -7 -7 -7 -7 -7 -6 -7 -7 -7 -7 -7 -6
-6 -6 -5 -6 -6 -6 -6 -6 -6 -6 -6 -6 -6 -6 -6 -6 -6 -6 -6 -5 -6 -6 -6 -6 -6 -6 -6 -6 -7 -7 -7 -7 -7 -7 -7 -7 -7 -7 -7 -7 -7 -7
-6 -6 -6 -6 -6 -6 -6 -6 -6 -6 -6 -6 -6 -6 -6 -6 -6 -6 -6 -6 -5 -5 -5 -6 -6 -6 -6 -6 -7 -7 -7 -7 -7 -7 -7 -7 -7 -7 -7 -7 -7 -7
-6 -6 -6 -6 -6 -6 -6 -6 -6 -6 -6 -6 -6 -6 -6 -6 -6 -6 -6 -6 -6 -6 -6 -6 -6 -6 -6 -6 -7 -7 -7 -7 -7 -7 -7 -7 -7 -7 -7 -7 -7 -7
-6 -6 -6 -6 -6 -6 -6 -6 -6 -6 -6 -6 -6 -6 -6 -6 -6 -6 -6 -6 -7 -7 -7 -6 -6 -6 -6 -6 -7 -7 -7 -7 -7 -7 -7 -7 -7 -7 -7 -7 -7 -7
-7 -7 -7 -6 -6 -6 -6 -7 -7 -6 -6 -6 -6 -6 -6 -6 -6 -6 -6 -6 -7 -7 -7 -7 -7 -6 -6 -6 -6 -7 -7 -7 -7 -7 -7 -7 -7 -7 -7 -7 -7 -7
-7 -7 -7 -7 -6 -6 -7 -7 -7 -7 -7 -7 -7 -7 -7 -7 -6 -6 -6 -6 -7 -7 -7 -7 -7 -6 -6 -6 -6 -6 -6 -7 -7 -7 -7 -7 -7 -7 -7 -7 -7 -7
-7 -7 -7 -7 -7 -6 -6 -7 -7 -7 -7 -7 -7 -7 -7 -7 -7 -7 -7 -7 -7 -7 -7 -7 -7 -7 -6 -6 -6 -6 -6 -6 -7 -7 -7 -7 -7 -7 -7 -7 -7 -7
-7 -7 -7 -7 -7 -7 -7 -7 -7 -7 -7 -7 -7 -7 -7 -7 -7 -7 -7 -7 -7 -7 -7 -7 -7 -7 -7 -7 -7 -6 -6 -6 -7 -7 -7 -7 -7 -7 -7 -7 -7 -7
-6 -6 -7 -7 -7 -7 -7 -7 -7 -7 -7 -7 -7 -7 -7 -7 -7 -7 -7 -7 -7 -7 -7 -7 -7 -7 -7 -7 -7 -7 -7 -7 -7 -7 -7 -7 -7 -7 -7 -7 -7 -7
Height
5937 5939 5940 5941 5942 5943 5944 5945 5946 5947 5948 5948 5949 5949 5950 5950 5950 5951 5951 5951 5951 5952 5952 5951 5951 5951 5951 5951 5952 5952 5952 5953 5953 5953 5953 5954 5954 5954 5954 5954 5955 5955
5938 5939 5940 5941 5942 5943 5944 5945 5946 5946 5947 5948 5949 5949 5950 5950 5950 5951 5951 5951 5952 5952 5952 5952 5952 5951 5951 5952 5952 5952 5952 5953 5953 5953 5953 5953 5953 5953 5953 5954 5954 5954
5937 5939 5940 5941 5942 5943 5944 5945 5945 5946 5947 5947 5948 5949 5950 5950 5950 5951 5951 5951 5951 5952 5952 5952 5952 5952 5952 5952 5952 5952 5952 5952 5952 5952 5952 5952 5952 5953 5953 5953 5953 5953
5937 5938 5940 5941 5942 5943 5943 5944 5945 5946 5946 5947 5948 5949 5949 5950 5950 5950 5951 5951 5951 5952 5952 5952 5952 5952 5952 5951 5951 5951 5952 5952 5951 5952 5952 5952 5952 5952 5952 5952 5952 5952
5937 5938 5939 5940 5941 5942 5943 5944 5945 5946 5946 5947 5948 5948 5949 5950 5950 5950 5951 5951 5951 5952 5952 5952 5952 5951 5951 5951 5951 5951 5951 5951 5951 5951 5951 5951 5952 5952 5952 5952 5952 5952
5937 5938 5939 5940 5941 5942 5943 5944 5944 5945 5946 5947 5947 5948 5949 5949 5950 5951 5951 5951 5952 5952 5952 5952 5951 5951 5951 5950 5950 5950 5950 5950 5950 5950 5950 5951 5951 5951 5951 5951 5951 5951
5936 5937 5939 5940 5940 5941 5942 5943 5944 5945 5946 5946 5947 5948 5948 5949 5950 5951 5951 5951 5951 5951 5951 5951 5950 5950 5950 5950 5950 5950 5950 5950 5950 5950 5950 5950 5950 5950 5950 5951 5951 5951
5935 5937 5938 5939 5940 5940 5941 5942 5943 5944 5945 5945 5946 5947 5948 5948 5949 5950 5950 5951 5951 5951 5950 5950 5950 5949 5949 5949 5949 5949 5949 5949 5950 5950 5950 5950 5950 5950 5950 5951 5951 5951
5934 5936 5937 5938 5939 5940 5940 5941 5942 5943 5943 5944 5945 5946 5947 5948 5948 5949 5950 5950 5950 5950 5950 5949 5949 5949 5948 5948 5949 5949 5949 5949 5950 5950 5950 5950 5950 5950 5950 5950 5951 5951
5933 5934 5935 5936 5937 5938 5939 5940 5941 5941 5942 5943 5944 5945 5945 5946 5947 5947 5948 5948 5948 5949 5949 5949 5948 5948 5948 5948 5948 5949 5949 5949 5949 5950 5950 5950 5950 5950 5950 5950 5950 5951
5931 5932 5933 5934 5935 5936 5937 5938 5939 5940 5940 5941 5942 5943 5943 5944 5945 5945 5946 5946 5947 5947 5948 5948 5948 5947 5947 5947 5948 5948 5948 5948 5949 5949 5949 5949 5949 5950 5950 5950 5950 5950
5928 5929 5930 5932 5933 5934 5935 5936 5937 5938 5938 5939 5940 5941 5941 5942 5942 5943 5943 5944 5945 5945 5946 5946 5946 5946 5946 5946 5946 5947 5947 5947 5948 5948 5948 5948 5948 5949 5949 5949 5949 5949
5924 5926 5927 5928 5930 5931 5933 5934 5935 5935 5936 5937 5938 5938 5939 5939 5940 5940 5941 5942 5942 5943 5943 5944 5945 5945 5945 5945 5945 5946 5946 5946 5947 5947 5947 5947 5947 5947 5947 5948 5948 5948
5921 5922 5923 5925 5926 5928 5929 5931 5932 5933 5934 5934 5935 5936 5936 5937 5938 5938 5939 5939 5940 5940 5941 5942 5942 5943 5944 5944 5945 5945 5945 5945 5945 5945 5945 5946 5946 5946 5946 5946 5946 5946
5919 5920 5921 5922 5924 5925 5926 5927 5928 5929 5930 5931 5932 5933 5934 5935 5935 5936 5937 5937 5937 5938 5938 5939 5940 5941 5942 5943 5943 5943 5944 5944 5944 5944 5944 5944 5944 5944 5944 5944 5944 5944
5917 5918 5919 5921 5922 5923 5923 5924 5925 5926 5927 5928 5930 5930 5931 5932 5933 5934 5934 5935 5935 5935 5936 5936 5937 5938 5940 5941 5941 5941 5941 5942 5942 5942 5942 5942 5942 5942 5942 5942 5942 5942
5916 5917 5917 5919 5920 5921 5921 5922 5922 5923 5924 5925 5926 5928 5929 5930 5930 5931 5932 5932 5933 5933 5933 5934 5935 5936 5937 5937 5938 5938 5939 5939 5939 5939 5939 5939 5939 5938 5939 5939 5940 5940
5914 5915 5916 5916 5918 5919 5919 5920 5921 5921 5922 5923 5923 5925 5925 5927 5928 5928 5929 5930 5930 5930 5930 5931 5933 5933 5934 5934 5934 5935 5935 5936 5937 5937 5936 5936 5936 5935 5936 5936 5937 5937
5909 5912 5913 5914 5915 5916 5917 5918 5918 5919 5920 5920 5921 5922 5923 5924 5925 5926 5927 5928 5928 5928 5928 5929 5931 5931 5931 5931 5931 5931 5932 5933 5933 5934 5934 5934 5934 5933 5933 5933 5933 5934
5905 5907 5909 5910 5911 5912 5913 5915 5915 5916 5917 5918 5919 5919 5920 5921 5921 5923 5924 5925 5926 5927 5928 5928 5929 5928 5928 5928 5928 5928 5929 5929 5930 5931 5931 5931 5931 5931 5931 5931 5931 5931
5901 5903 5904 5906 5907 5908 5909 5910 5911 5912 5913 5914 5916 5917 5918 5918 5918 5920 5920 5921 5922 5924 5925 5926 5926 5925 5925 5925 5925 5925 5926 5926 5926 5927 5927 5927 5927 5927 5927 5927 5927 5928
5898 5899 5901 5902 5902 5903 5904 5905 5907 5908 5909 5911 5912 5914 5915 5915 5916 5917 5917 5917 5918 5918 5920 5923 5923 5921 5921 5922 5921 5922 5923 5923 5924 5924 5924 5924 5924 5923 5923 5923 5923 5923
5894 5895 5896 5897 5898 5899 5900 5901 5902 5903 5905 5906 5908 5909 5910 5911 5912 5913 5913 5914 5914 5914 5914 5917 5918 5918 5919 5918 5917 5918 5919 5920 5920 5920 5921 5922 5922 5921 5921 5920 5919 5919
5890 5890 5891 5893 5894 5896 5897 5897 5898 5899 5900 5901 5903 5904 5905 5907 5908 5910 5910 5910 5910 5910 5911 5912 5913 5914 5916 5915 5914 5914 5914 5915 5916 5916 5917 5918 5918 5918 5918 5917 5916 5915
5887 5887 5887 5889 5892 5893 5893 5894 5894 5895 5895 5896 5898 5899 5901 5902 5903 5904 5905 5905 5906 5907 5908 5909 5909 5910 5911 5911 5911 5910 5910 5910 5911 5912 5912 5913 5913 5913 5913 5913 5912 5912
5882 5883 5884 5886 5888 5888 5888 5889 5890 5890 5891 5892 5893 5895 5896 5897 5898 5898 5899 5901 5902 5904 5904 5905 5906 5906 5906 5906 5906 5907 5907 5907 5906 5906 5907 5907 5907 5907 5907 5908 5908 5908
Wind_Speed
21 20 19 18 17 16 15 13 12 10 9 8 6 5 4 4 3 3 3 2 2 2 2 2 2 2 2 3 4 5 6 6 6 5 4 4 4 4 4 4 4 4
22 21 20 19 18 17 16 14 12 10 9 8 7 6 5 5 4 4 3 2 2 1 0 1 1 2 3 4 5 6 7 7 6 6 5 4 4 4 4 5 4 4
22 21 20 19 18 17 16 14 13 11 10 8 8 7 7 6 6 5 4 3 2 2 1 1 2 3 4 5 6 6 7 8 7 7 6 6 5 5 5 5 5 4
22 22 21 20 18 17 15 14 13 12 11 10 9 8 8 7 6 6 6 5 4 3 3 3 4 5 6 6 6 7 7 7 7 7 6 6 6 6 6 5 5 5
23 22 21 20 18 17 16 14 13 13 12 11 11 10 9 9 9 8 8 7 6 5 4 4 5 6 7 7 7 8 8 7 7 7 6 6 6 6 6 6 5 5
24 23 21 20 19 18 16 15 14 14 13 13 13 12 12 11 11 11 10 9 8 6 5 5 5 7 8 8 8 8 8 8 8 7 7 7 6 6 7 6 6 6
25 24 23 21 20 19 18 17 16 15 15 15 15 14 14 13 13 12 11 10 9 8 7 6 6 7 9 9 9 8 8 8 8 8 8 7 7 7 7 6 6 6
27 26 25 23 22 21 20 19 18 17 17 17 17 16 15 14 14 13 12 12 11 10 9 8 7 8 9 10 10 9 9 9 8 8 8 8 7 7 7 6 6 6
29 28 27 26 25 24 22 21 20 20 19 19 18 18 17 16 15 14 14 13 13 12 11 10 9 9 10 11 11 11 10 10 9 9 9 8 8 8 7 7 6 6
30 30 29 29 28 27 26 25 23 22 22 21 20 19 19 17 17 16 16 16 15 15 13 11 10 10 11 12 13 12 12 11 11 10 10 9 9 8 8 7 7 7
29 30 30 30 30 30 28 27 26 25 25 24 23 22 21 20 19 18 18 18 18 16 15 13 13 13 13 14 14 14 13 13 12 11 11 11 10 9 9 8 8 8
28 29 30 30 31 31 30 29 28 28 27 26 25 24 23 22 22 21 21 20 19 18 17 16 16 15 15 15 15 15 14 14 13 13 13 12 11 11 10 10 10 10
26 27 29 30 30 30 30 30 29 29 29 28 27 26 26 25 24 24 23 22 21 19 18 18 18 17 16 15 15 15 15 14 14 14 14 13 13 13 12 12 11 11
25 26 28 28 29 29 28 28 29 29 29 29 28 28 27 27 26 25 24 23 21 20 19 19 19 18 17 15 15 14 14 14 15 15 15 14 14 13 13 13 12 11
26 26 27 27 27 27 26 26 27 27 27 28 28 28 28 27 26 25 24 22 20 19 19 19 19 19 18 15 14 14 14 15 15 15 15 15 15 14 14 14 13 12
27 27 26 26 26 26 26 26 25 26 25 25 25 26 26 25 25 24 22 21 19 19 19 19 18 19 19 18 17 16 16 16 16 16 16 16 15 15 15 15 14 14
28 28 28 27 27 27 27 27 26 26 25 24 24 24 24 24 24 23 22 21 20 19 19 19 18 18 19 19 20 20 20 19 18 18 17 17 16 16 16 16 16 16
29 30 30 29 28 27 27 27 27 27 26 25 24 24 24 25 24 23 23 22 21 21 21 20 19 19 20 20 20 21 21 21 20 20 19 19 19 19 19 18 18 18
31 31 31 31 30 29 28 28 28 28 28 27 26 25 25 25 25 24 24 23 23 22 22 21 21 21 21 21 22 22 22 22 22 21 21 22 22 22 22 22 21 21
32 32 32 32 32 31 30 30 30 30 30 30 29 28 27 27 27 26 25 26 26 25 25 23 23 24 24 23 24 24 24 25 24 23 24 24 25 25 25 25 25 24
34 33 33 34 33 32 32 32 32 32 32 32 31 30 29 29 29 28 28 29 28 28 28 26 25 26 27 26 27 27 26 27 27 26 27 26 27 27 28 28 28 28
36 35 35 36 35 34 34 34 34 34 33 33 32 32 32 32 31 30 31 31 30 29 28 27 29 30 28 28 29 28 28 28 28 28 29 29 29 30 30 30 31 31
38 38 38 38 37 37 36 36 35 35 35 34 33 33 34 34 33 32 33 33 33 32 30 28 31 32 30 29 31 31 30 30 29 30 30 30 31 31 31 32 33 33
39 40 40 38 37 37 37 37 37 36 36 36 36 35 36 36 34 34 34 35 35 36 34 31 30 32 32 32 33 34 33 32 32 32 32 32 33 34 34 34 36 36
39 41 42 39 37 38 38 37 37 37 37 37 37 37 38 38 37 36 37 37 37 37 37 35 33 33 34 34 34 35 35 36 36 35 35 34 35 36 36 36 37 37
39 41 43 41 38 39 40 39 38 38 38 38 38 38 38 39 39 40 39 38 38 38 38 37 36 35 34 34 35 35 34 35 36 36 37 37 37 38 38 38 37 37
Wind_Direction
181 181 184 185 186 188 191 192 191 190 192 194 194 190 182 177 171 163 145 119 96 76 52 17 353 335 290 255 245 241 239 235 227 223 222 227 233 236 244 251 254 253
185 185 187 190 191 192 195 198 201 202 201 200 199 198 193 191 190 182 167 149 132 119 84 343 326 300 269 246 234 231 232 229 221 215 211 213 221 225 229 234 238 241
189 190 192 194 196 198 199 201 206 211 214 211 206 201 198 198 200 198 194 192 187 186 207 231 239 240 237 232 226 222 222 221 217 212 209 208 211 217 220 223 227 230
194 194 196 198 200 202 204 206 208 212 216 219 216 212 209 210 213 213 214 216 216 218 226 233 229 226 223 219 216 215 214 212 211 210 209 209 209 213 216 217 219 221
200 200 200 201 203 206 208 211 212 214 217 219 221 221 220 219 220 221 224 229 233 240 251 255 242 230 226 219 212 209 207 204 205 205 205 206 206 209 212 215 217 221
206 206 206 207 208 210 212 215 217 218 220 221 222 223 224 223 223 225 230 235 243 252 262 265 251 235 229 225 220 213 206 203 203 203 203 203 205 208 210 214 218 222
212 212 212 213 214 215 217 219 221 221 222 224 224 225 227 228 229 232 237 243 250 257 263 265 253 235 228 226 225 220 212 206 205 204 203 201 201 206 209 211 215 219
215 216 216 217 218 220 221 222 224 225 225 227 227 229 232 234 236 240 245 252 259 265 270 272 260 239 229 226 225 224 219 214 211 209 206 203 202 204 205 207 210 214
216 218 219 220 221 222 224 225 226 228 229 231 233 235 237 241 244 249 253 259 267 274 278 278 266 246 233 228 225 224 222 219 217 216 212 209 208 208 208 210 215 221
218 219 220 221 223 225 226 227 228 230 232 234 237 239 242 246 250 254 259 264 271 277 280 276 265 249 235 230 227 225 223 221 219 220 220 219 217 218 219 223 229 236
224 224 224 224 225 227 228 230 231 233 236 238 240 242 245 249 252 256 260 266 271 276 277 272 260 248 236 228 227 226 225 224 223 223 226 231 234 235 236 238 242 247
229 229 229 229 229 230 231 233 235 238 240 242 245 247 249 251 254 257 260 264 268 271 271 266 256 248 238 229 226 227 227 227 228 228 230 234 239 244 246 248 250 253
228 230 231 232 233 235 236 237 239 242 244 247 249 251 253 254 255 257 259 261 263 264 264 259 251 244 239 232 229 229 231 233 236 237 238 239 241 244 247 250 253 256
225 227 229 231 233 235 238 240 242 245 247 249 251 253 254 255 256 257 257 258 257 256 255 252 247 243 240 236 233 233 235 238 242 244 246 248 249 251 253 255 257 259
226 227 229 230 231 233 235 238 241 244 247 249 251 252 253 254 255 256 256 254 252 250 248 247 244 242 240 239 239 241 242 243 246 249 251 255 258 259 260 260 261 263
227 229 230 231 232 232 233 234 236 240 244 247 250 251 253 254 254 255 254 251 249 248 247 246 244 242 242 243 245 248 251 251 252 254 256 258 261 262 262 262 262 264
234 232 231 232 233 233 234 234 235 237 239 242 246 250 252 253 253 253 252 251 250 249 248 247 245 244 245 247 250 252 254 256 258 256 255 256 257 259 261 262 263 265
238 237 235 234 233 234 235 236 237 239 238 239 241 245 250 252 253 253 252 250 249 248 248 247 246 246 246 248 251 253 254 256 257 257 256 256 256 257 259 260 261 262
234 238 238 238 237 236 236 236 238 239 240 240 240 240 244 249 252 255 256 255 252 250 249 249 247 247 247 248 250 252 253 254 254 254 255 256 257 258 259 259 259 259
233 235 238 239 239 239 239 239 240 240 241 242 241 240 240 242 245 248 251 254 256 256 255 254 252 250 248 248 249 250 252 253 254 254 254 255 257 260 261 261 261 261
235 234 237 239 239 240 241 241 242 242 243 244 244 244 244 243 243 244 245 248 252 256 258 257 254 250 247 247 249 250 251 253 254 254 255 256 257 259 261 262 263 263
235 234 236 239 238 237 238 240 241 242 244 245 246 247 248 247 246 245 246 247 247 248 250 253 254 252 250 249 251 252 252 253 255 256 257 257 258 260 263 264 265 266
236 235 236 238 239 238 239 240 241 241 243 244 245 247 248 249 249 248 248 249 248 246 245 247 251 253 254 254 255 256 255 255 257 259 259 260 261 263 264 265 266 266
240 241 241 241 241 242 243 243 242 242 242 242 243 244 246 248 250 250 249 249 249 249 248 249 251 253 253 253 255 257 257 257 258 259 260 260 261 262 263 265 266 267
244 247 246 243 244 244 244 244 244 244 244 244 243 243 245 247 247 249 249 249 249 250 252 253 256 255 253 252 254 255 257 259 260 260 260 260 260 261 261 262 264 265
243 247 247 248 249 247 243 243 245 246 245 245 245 246 248 248 246 246 246 247 248 251 253 254 256 257 257 255 254 253 255 258 260 262 262 262 262 262 261 261 262 264